DW8313 Weather Reports


Display with metric or nautical units.
time (UTC)temp
F
wind
direction
speed
MPH
gust
MPH
rain 1hr
in
rain 24hr
in
rain mn
in
humidity
%
barometer
mb
20191021172600 73 266 0.0 2.0 0.00 0.00 0.00 22 1020.4
20191021172200 73 291 0.0 3.0 0.00 0.00 0.00 23 1020.5
20191021172000 73 307 0.0 3.0 0.00 0.00 0.00 24 1020.4
20191021171800 73 287 0.0 3.0 0.00 0.00 0.00 21 1020.3
20191021171600 73 252 0.0 3.0 0.00 0.00 0.00 20 1020.3
20191021171400 73 173 0.0 3.0 0.00 0.00 0.00 20 1020.3
20191021171200 73 345 0.0 1.0 0.00 0.00 0.00 23 1020.5
20191021171000 73 294 0.0 0.0 0.00 0.00 0.00 24 1020.5
20191021170800 73 302 0.0 0.0 0.00 0.00 0.00 22 1020.4
20191021170600 73 302 0.0 0.0 0.00 0.00 0.00 20 1020.4
20191021170400 72 302 0.0 0.0 0.00 0.00 0.00 20 1020.4
20191021165600 72 304 0.0 1.0 0.00 0.00 0.00 21 1020.2
20191021165359 72 300 0.0 1.0 0.00 0.00 0.00 23 1020.2
20191021165159 72 301 0.0 0.0 0.00 0.00 0.00 20 1020.2
20191021165000 72 296 0.0 0.0 0.00 0.00 0.00 22 1020.2
20191021164800 71 281 0.0 0.0 0.00 0.00 0.00 21 1020.2
20191021164600 71 298 0.0 1.0 0.00 0.00 0.00 22 1020.2
20191021164400 71 312 0.0 1.0 0.00 0.00 0.00 22 1020.2
20191021164200 71 58 0.0 1.0 0.00 0.00 0.00 23 1020.2
20191021163400 70 58 0.0 2.0 0.00 0.00 0.00 24 1020.2
20191021163200 70 58 0.0 2.0 0.00 0.00 0.00 23 1020.2
20191021162400 68 85 0.0 0.0 0.00 0.00 0.00 24 1020.2
20191021161400 68 85 0.0 0.0 0.00 0.00 0.00 27 1020.1
20191021160200 67 84 0.0 0.0 0.00 0.00 0.00 29 1020.1
20191021160000 67 85 0.0 0.0 0.00 0.00 0.00 28 1020.2
20191021155800 67 95 0.0 0.0 0.00 0.00 0.00 30 1020.1
20191021155000 67 94 0.0 0.0 0.00 0.00 0.00 30 1020.0
20191021154600 67 94 0.0 0.0 0.00 0.00 0.00 28 1020.0
20191021154159 67 90 0.0 0.0 0.00 0.00 0.00 26 1019.9
20191021154000 67 86 0.0 1.0 0.00 0.00 0.00 26 1019.9
20191021153800 67 90 0.0 2.0 0.00 0.00 0.00 25 1019.9
20191021153359 66 89 0.0 3.0 0.00 0.00 0.00 26 1019.8
20191021153159 66 89 0.0 3.0 0.00 0.00 0.00 24 1019.8
20191021152959 66 92 0.0 3.0 0.00 0.00 0.00 25 1019.8
20191021152600 66 90 0.0 3.0 0.00 0.00 0.00 25 1019.7
20191021152159 66 87 0.0 1.0 0.00 0.00 0.00 25 1019.6
20191021152000 66 93 0.0 3.0 0.00 0.00 0.00 25 1019.6
20191021151559 65 89 0.0 3.0 0.00 0.00 0.00 25 1019.5
20191021151159 65 84 0.0 3.0 0.00 0.00 0.00 26 1019.5
20191021151000 64 97 0.0 2.0 0.00 0.00 0.00 26 1019.5
20191021150800 64 89 0.0 3.0 0.00 0.00 0.00 27 1019.4
20191021150600 63 92 1.0 3.0 0.00 0.00 0.00 27 1019.4
20191021150400 63 87 1.0 3.0 0.00 0.00 0.00 27 1019.4
20191021150200 63 101 1.0 4.0 0.00 0.00 0.00 27 1019.4
20191021150000 63 95 1.0 4.0 0.00 0.00 0.00 27 1019.1
20191021144400 62 86 2.0 4.0 0.00 0.00 0.00 27 1019.0
20191021143400 62 96 2.0 4.0 0.00 0.00 0.00 27 1018.8
20191021143200 62 103 2.0 4.0 0.00 0.00 0.00 27 1018.8
20191021142800 62 97 2.0 4.0 0.00 0.00 0.00 27 1018.8
20191021142600 62 83 1.0 4.0 0.00 0.00 0.00 27 1018.8
20191021142200 62 91 1.0 4.0 0.00 0.00 0.00 27 1018.8
20191021141600 62 82 1.0 2.0 0.00 0.00 0.00 26 1018.8
20191021141400 62 92 1.0 2.0 0.00 0.00 0.00 26 1018.7
20191021141159 63 96 1.0 2.0 0.00 0.00 0.00 26 1018.7
20191021140759 63 81 1.0 3.0 0.00 0.00 0.00 26 1018.6
20191021140400 63 97 1.0 3.0 0.00 0.00 0.00 26 1018.6
20191021140200 63 90 1.0 3.0 0.00 0.00 0.00 26 1018.5
20191021140000 62 89 1.0 3.0 0.00 0.00 0.00 26 1018.5
20191021135600 63 86 1.0 3.0 0.00 0.00 0.00 26 1018.5
20191021135200 63 84 1.0 2.0 0.00 0.00 0.00 26 1018.4
20191021135000 63 85 1.0 3.0 0.00 0.00 0.00 25 1018.4
20191021134800 63 101 1.0 3.0 0.00 0.00 0.00 26 1018.4
20191021134600 62 88 1.0 3.0 0.00 0.00 0.00 26 1018.4
20191021133959 62 91 1.0 4.0 0.00 0.00 0.00 26 1018.3
20191021133800 62 89 2.0 4.0 0.00 0.00 0.00 26 1018.2
20191021133600 62 86 2.0 4.0 0.00 0.00 0.00 26 1018.3
20191021133400 62 89 2.0 4.0 0.00 0.00 0.00 27 1018.2
20191021133000 62 75 2.0 3.0 0.00 0.00 0.00 26 1018.2
20191021132800 62 87 2.0 3.0 0.00 0.00 0.00 26 1018.2
20191021131600 62 91 0.0 3.0 0.00 0.00 0.00 26 1018.0
20191021131159 62 86 0.0 0.0 0.00 0.00 0.00 26 1017.9
20191021131000 62 94 0.0 3.0 0.00 0.00 0.00 26 1017.9
20191021130800 62 91 0.0 3.0 0.00 0.00 0.00 26 1017.9
20191021130359 62 93 0.0 3.0 0.00 0.00 0.00 26 1017.8
20191021125800 62 83 0.0 1.0 0.00 0.00 0.00 26 1017.7
20191021125559 62 97 0.0 1.0 0.00 0.00 0.00 26 1017.7
20191021125400 62 99 0.0 2.0 0.00 0.00 0.00 26 1017.6
20191021125159 62 99 0.0 2.0 0.00 0.00 0.00 26 1017.6
20191021124759 63 99 0.0 2.0 0.00 0.00 0.00 26 1017.6
20191021124600 63 99 1.0 2.0 0.00 0.00 0.00 26 1017.5
20191021124200 63 92 1.0 2.0 0.00 0.00 0.00 26 1017.5
20191021124000 62 103 1.0 2.0 0.00 0.00 0.00 26 1017.5
20191021123759 62 86 1.0 2.0 0.00 0.00 0.00 26 1017.4
20191021123559 63 83 0.0 2.0 0.00 0.00 0.00 26 1017.4
20191021123200 63 89 0.0 1.0 0.00 0.00 0.00 26 1017.3
20191021122200 62 89 0.0 1.0 0.00 0.00 0.00 26 1017.2
20191021121959 62 85 0.0 1.0 0.00 0.00 0.00 26 1017.3
20191021121759 62 85 0.0 1.0 0.00 0.00 0.00 26 1017.3
20191021121400 62 83 0.0 2.0 0.00 0.00 0.00 26 1017.3
20191021120759 63 92 0.0 2.0 0.00 0.00 0.00 26 1017.2
20191021120359 63 84 0.0 2.0 0.00 0.00 0.00 25 1017.3
20191021120200 63 89 0.0 1.0 0.00 0.00 0.00 25 1017.3
20191021115800 63 90 0.0 2.0 0.00 0.00 0.00 25 1017.1
20191021115200 63 87 0.0 2.0 0.00 0.00 0.00 25 1017.1
20191021114959 63 82 1.0 2.0 0.00 0.00 0.00 25 1017.0
20191021114600 63 82 1.0 2.0 0.00 0.00 0.00 25 1017.0
20191021114159 63 84 1.0 2.0 0.00 0.00 0.00 25 1017.0
20191021113600 64 88 1.0 2.0 0.00 0.00 0.00 25 1016.9
20191021113359 64 88 1.0 3.0 0.00 0.00 0.00 25 1016.9
20191021113200 64 84 1.0 3.0 0.00 0.00 0.00 25 1016.9
20191021112959 64 85 1.0 3.0 0.00 0.00 0.00 25 1016.9
20191021112759 64 86 2.0 3.0 0.00 0.00 0.00 25 1016.9
20191021112600 63 87 2.0 3.0 0.00 0.00 0.00 25 1016.9
20191021112400 63 100 2.0 3.0 0.00 0.00 0.00 25 1017.0
20191021112000 64 105 2.0 3.0 0.00 0.00 0.00 25 1017.0
20191021111600 64 86 2.0 3.0 0.00 0.00 0.00 25 1017.0
20191021111400 63 88 2.0 3.0 0.00 0.00 0.00 25 1017.1
20191021111200 63 86 1.0 3.0 0.00 0.00 0.00 25 1017.1
20191021111000 63 82 1.0 3.0 0.00 0.00 0.00 25 1017.1
20191021110800 64 86 1.0 3.0 0.00 0.00 0.00 25 1017.1
20191021110400 64 89 1.0 2.0 0.00 0.00 0.00 25 1017.2
20191021110159 64 94 2.0 3.0 0.00 0.00 0.00 25 1017.2
20191021105759 64 85 2.0 3.0 0.00 0.00 0.00 25 1017.2
20191021105559 64 99 1.0 3.0 0.00 0.00 0.00 25 1017.2
20191021105400 64 108 1.0 3.0 0.00 0.00 0.00 25 1017.2
20191021104800 64 84 1.0 2.0 0.00 0.00 0.00 25 1017.4
20191021104359 64 94 1.0 2.0 0.00 0.00 0.00 25 1017.4
20191021104200 64 94 0.0 2.0 0.00 0.00 0.00 25 1017.4
20191021103359 64 94 1.0 3.0 0.00 0.00 0.00 25 1017.3
20191021103200 64 89 1.0 3.0 0.00 0.00 0.00 25 1017.3
20191021102400 64 98 1.0 3.0 0.00 0.00 0.00 25 1017.3
20191021102000 64 95 2.0 3.0 0.00 0.00 0.00 25 1017.3
20191021100959 64 89 2.0 3.0 0.00 0.00 0.00 25 1017.2
20191021100800 64 91 2.0 3.0 0.00 0.00 0.00 25 1017.2
20191021100600 64 89 1.0 3.0 0.00 0.00 0.00 25 1017.2
20191021100400 64 82 1.0 3.0 0.00 0.00 0.00 25 1017.1
20191021100000 64 86 2.0 4.0 0.00 0.00 0.00 25 1017.1
20191021095800 63 86 2.0 4.0 0.00 0.00 0.00 25 1017.1
20191021095200 63 79 3.0 4.0 0.00 0.00 0.00 26 1017.1
20191021094959 63 85 3.0 4.0 0.00 0.00 0.00 26 1017.1
20191021094759 63 96 3.0 4.0 0.00 0.00 0.00 26 1017.1
20191021094600 63 82 2.0 4.0 0.00 0.00 0.00 26 1017.1
20191021093400 63 73 1.0 3.0 0.00 0.00 0.00 26 1017.2
20191021092959 63 86 1.0 4.0 0.00 0.00 0.00 26 1017.2
20191021092600 63 91 2.0 4.0 0.00 0.00 0.00 25 1017.2
20191021092400 63 92 2.0 4.0 0.00 0.00 0.00 25 1017.2
20191021091400 63 91 2.0 3.0 0.00 0.00 0.00 25 1017.2
20191021090800 62 82 1.0 2.0 0.00 0.00 0.00 26 1017.3
20191021090600 62 89 1.0 2.0 0.00 0.00 0.00 26 1017.3
20191021090359 63 92 1.0 2.0 0.00 0.00 0.00 26 1017.4
20191021090159 63 95 0.0 2.0 0.00 0.00 0.00 26 1017.4
20191021090000 63 87 0.0 2.0 0.00 0.00 0.00 26 1017.2
20191021085400 63 87 0.0 1.0 0.00 0.00 0.00 25 1017.3
20191021085159 63 99 0.0 1.0 0.00 0.00 0.00 25 1017.3
20191021084800 63 90 0.0 1.0 0.00 0.00 0.00 25 1017.2
20191021084600 63 90 0.0 1.0 0.00 0.00 0.00 25 1017.2
20191021084000 63 120 0.0 0.0 0.00 0.00 0.00 26 1017.2
20191021083600 63 120 0.0 0.0 0.00 0.00 0.00 26 1017.2
20191021083400 63 120 0.0 0.0 0.00 0.00 0.00 26 1017.1
20191021082600 65 89 0.0 0.0 0.00 0.00 0.00 25 1017.3
20191021082200 66 125 0.0 1.0 0.00 0.00 0.00 24 1017.3
20191021082000 66 125 0.0 1.0 0.00 0.00 0.00 23 1017.3
20191021081759 66 120 0.0 1.0 0.00 0.00 0.00 23 1017.3
20191021081600 66 132 0.0 2.0 0.00 0.00 0.00 23 1017.2
20191021081359 66 122 0.0 2.0 0.00 0.00 0.00 25 1017.3
20191021081000 67 99 0.0 2.0 0.00 0.00 0.00 24 1017.2
20191021080159 67 115 0.0 4.0 0.00 0.00 0.00 23 1017.1
20191021080000 67 103 0.0 4.0 0.00 0.00 0.00 23 1016.9
20191021075200 67 120 0.0 2.0 0.00 0.00 0.00 23 1017.0
20191021074759 67 123 1.0 3.0 0.00 0.00 0.00 23 1017.1
20191021074600 67 155 0.0 3.0 0.00 0.00 0.00 24 1017.1
20191021074400 67 121 1.0 3.0 0.00 0.00 0.00 24 1017.1
20191021074159 66 117 1.0 3.0 0.00 0.00 0.00 24 1017.2
20191021074000 66 120 0.0 3.0 0.00 0.00 0.00 24 1017.2
20191021073800 66 123 1.0 3.0 0.00 0.00 0.00 24 1017.2
20191021073559 66 116 1.0 4.0 0.00 0.00 0.00 25 1017.2
20191021073159 65 112 2.0 4.0 0.00 0.00 0.00 25 1017.1
20191021072200 63 127 2.0 4.0 0.00 0.00 0.00 28 1017.2
20191021071959 63 113 2.0 4.0 0.00 0.00 0.00 28 1017.2
20191021071159 63 84 1.0 3.0 0.00 0.00 0.00 27 1017.4
20191021071000 63 93 1.0 3.0 0.00 0.00 0.00 27 1017.4
20191021070359 63 85 1.0 2.0 0.00 0.00 0.00 27 1017.5
20191021070200 64 82 1.0 3.0 0.00 0.00 0.00 27 1017.5
20191021070000 64 88 1.0 3.0 0.00 0.00 0.00 27 1017.5
20191021065400 64 103 2.0 5.0 0.00 0.00 0.00 27 1017.5
20191021065200 64 92 2.0 5.0 0.00 0.00 0.00 27 1017.6
20191021065000 64 103 2.0 5.0 0.00 0.00 0.00 27 1017.6
20191021064800 64 87 2.0 5.0 0.00 0.00 0.00 27 1017.6
20191021064159 63 83 2.0 3.0 0.00 0.00 0.00 28 1017.5
20191021063959 63 104 2.0 4.0 0.00 0.00 0.00 28 1017.5
20191021063159 63 91 1.0 4.0 0.00 0.00 0.00 28 1017.6
20191021062559 64 94 1.0 3.0 0.00 0.00 0.00 27 1017.5
20191021061959 64 85 2.0 3.0 0.00 0.00 0.00 28 1017.5
20191021061800 64 84 2.0 3.0 0.00 0.00 0.00 27 1017.5
20191021061559 64 88 2.0 3.0 0.00 0.00 0.00 27 1017.4
20191021061200 64 89 2.0 3.0 0.00 0.00 0.00 28 1017.5
20191021060959 64 92 2.0 3.0 0.00 0.00 0.00 28 1017.5
20191021060800 64 86 2.0 3.0 0.00 0.00 0.00 28 1017.5
20191021060359 63 82 2.0 3.0 0.00 0.00 0.00 28 1017.5
20191021060200 63 91 2.0 3.0 0.00 0.00 0.00 28 1017.4
20191021060000 63 81 2.0 3.0 0.00 0.00 0.00 28 1017.3
20191021055800 63 94 2.0 3.0 0.00 0.00 0.00 28 1017.3
20191021055200 63 86 2.0 3.0 0.00 0.00 0.00 28 1017.2
20191021055000 63 97 2.0 3.0 0.00 0.00 0.00 28 1017.2
20191021054800 63 92 2.0 3.0 0.00 0.00 0.00 28 1017.1
20191021054359 63 99 2.0 3.0 0.00 0.00 0.00 28 1017.1
20191021054159 63 91 1.0 3.0 0.00 0.00 0.00 28 1017.1
20191021054000 64 99 1.0 3.0 0.00 0.00 0.00 28 1017.2
20191021053759 64 100 1.0 3.0 0.00 0.00 0.00 28 1017.1
20191021053600 64 92 0.0 3.0 0.00 0.00 0.00 28 1017.1
20191021053200 64 92 0.0 1.0 0.00 0.00 0.00 27 1017.0
20191021052800 64 98 0.0 3.0 0.00 0.00 0.00 27 1017.0
20191021052559 64 102 0.0 3.0 0.00 0.00 0.00 28 1017.0
20191021052400 64 96 0.0 3.0 0.00 0.00 0.00 27 1016.9
20191021052000 64 96 0.0 3.0 0.00 0.00 0.00 28 1016.9
20191021051601 64 101 1.0 4.0 0.00 0.00 0.00 28 1016.9
20191021051159 64 89 1.0 4.0 0.00 0.00 0.00 28 1016.8
20191021051000 63 85 2.0 4.0 0.00 0.00 0.00 28 1016.7
20191021050759 63 82 1.0 4.0 0.00 0.00 0.00 28 1016.7
20191021050600 64 82 1.0 4.0 0.00 0.00 0.00 28 1016.7
20191021050400 64 103 1.0 4.0 0.00 0.00 0.00 28 1016.6
20191021050200 64 79 1.0 4.0 0.00 0.00 0.00 28 1016.6
20191021045800 64 96 2.0 4.0 0.00 0.00 0.00 28 1016.6
20191021045400 64 78 2.0 4.0 0.00 0.00 0.00 28 1016.5
20191021045200 64 83 2.0 4.0 0.00 0.00 0.00 28 1016.5
20191021044959 64 83 2.0 4.0 0.00 0.00 0.00 28 1016.5
20191021044159 64 95 1.0 4.0 0.00 0.00 0.00 28 1016.5
20191021043759 64 97 1.0 4.0 0.00 0.00 0.00 28 1016.4
20191021043600 64 97 0.0 4.0 0.00 0.00 0.00 28 1016.4
20191021043200 64 89 0.0 2.0 0.00 0.00 0.00 28 1016.3
20191021042559 63 88 0.0 2.0 0.00 0.00 0.00 29 1016.3
20191021042400 63 94 0.0 2.0 0.00 0.00 0.00 29 1016.3
20191021041959 64 86 0.0 1.0 0.00 0.00 0.00 29 1016.2
20191021041800 64 92 0.0 2.0 0.00 0.00 0.00 28 1016.2
20191021041600 64 92 0.0 2.0 0.00 0.00 0.00 28 1016.2
20191021041200 64 102 0.0 2.0 0.00 0.00 0.00 28 1016.1
20191021040759 65 99 0.0 2.0 0.00 0.00 0.00 28 1016.1
20191021040200 65 89 0.0 2.0 0.00 0.00 0.00 28 1015.9
20191021035959 65 99 0.0 1.0 0.00 0.00 0.00 27 1015.9
20191021035000 65 94 2.0 3.0 0.00 0.00 0.00 27 1015.9
20191021034559 65 91 1.0 3.0 0.00 0.00 0.00 27 1016.0
20191021034359 65 91 1.0 3.0 0.00 0.00 0.00 27 1016.0
20191021033959 65 91 1.0 3.0 0.00 0.00 0.00 27 1015.8
20191021033400 66 94 1.0 3.0 0.00 0.00 0.00 27 1015.7
20191021033159 66 90 1.0 3.0 0.00 0.00 0.00 27 1015.7
20191021033000 65 92 1.0 3.0 0.00 0.00 0.00 27 1015.7
20191021032759 65 89 2.0 3.0 0.00 0.00 0.00 27 1015.7
20191021032559 65 86 2.0 3.0 0.00 0.00 0.00 27 1015.7
20191021032159 66 104 2.0 3.0 0.00 0.00 0.00 27 1015.7
20191021031559 66 75 2.0 3.0 0.00 0.00 0.00 27 1015.6
20191021031359 66 90 2.0 3.0 0.00 0.00 0.00 27 1015.7
20191021031159 66 90 2.0 3.0 0.00 0.00 0.00 27 1015.6
20191021030759 66 96 2.0 3.0 0.00 0.00 0.00 27 1015.7
20191021030559 66 92 1.0 3.0 0.00 0.00 0.00 27 1015.5
20191021030400 66 87 1.0 3.0 0.00 0.00 0.00 27 1015.5
20191021025959 65 89 1.0 3.0 0.00 0.00 0.00 27 1015.5
20191021025759 65 89 1.0 3.0 0.00 0.00 0.00 28 1015.5
20191021025600 65 94 1.0 3.0 0.00 0.00 0.00 28 1015.5
20191021025200 65 89 1.0 3.0 0.00 0.00 0.00 28 1015.5
20191021024600 65 111 1.0 3.0 0.00 0.00 0.00 27 1015.4
20191021024000 66 103 2.0 3.0 0.00 0.00 0.00 27 1015.3
20191021023759 67 94 2.0 3.0 0.00 0.00 0.00 27 1015.2
20191021023600 67 100 2.0 3.0 0.00 0.00 0.00 27 1015.3
20191021023159 67 99 2.0 3.0 0.00 0.00 0.00 26 1015.2
20191021022959 66 94 2.0 3.0 0.00 0.00 0.00 27 1015.2
20191021022800 66 81 2.0 4.0 0.00 0.00 0.00 27 1015.2
20191021022559 66 104 2.0 4.0 0.00 0.00 0.00 27 1015.2
20191021022400 67 96 2.0 4.0 0.00 0.00 0.00 27 1015.1
20191021021759 67 91 1.0 4.0 0.00 0.00 0.00 27 1015.1
20191021021400 67 86 1.0 4.0 0.00 0.00 0.00 27 1015.1
20191021021200 67 85 1.0 4.0 0.00 0.00 0.00 27 1015.1
20191021020959 67 84 1.0 4.0 0.00 0.00 0.00 27 1015.0
20191021020800 67 94 2.0 4.0 0.00 0.00 0.00 27 1015.0
20191021020400 66 103 2.0 3.0 0.00 0.00 0.00 27 1014.8
20191021020000 66 112 1.0 3.0 0.00 0.00 0.00 27 1014.9
20191021015600 66 80 1.0 3.0 0.00 0.00 0.00 27 1014.8
20191021015359 66 91 1.0 3.0 0.00 0.00 0.00 27 1014.9
20191021014800 67 84 1.0 3.0 0.00 0.00 0.00 26 1014.8
20191021014159 67 102 1.0 3.0 0.00 0.00 0.00 25 1014.6
20191021013759 67 84 1.0 3.0 0.00 0.00 0.00 26 1014.6
20191021013200 67 84 0.0 2.0 0.00 0.00 0.00 26 1014.5
20191021012559 67 94 0.0 2.0 0.00 0.00 0.00 25 1014.4
20191021012000 68 89 0.0 1.0 0.00 0.00 0.00 25 1014.3
20191021011800 69 103 0.0 1.0 0.00 0.00 0.00 25 1014.3
20191021011600 69 82 0.0 1.0 0.00 0.00 0.00 24 1014.4
20191021011359 69 79 0.0 1.0 0.00 0.00 0.00 24 1014.3
20191021011159 69 90 0.0 1.0 0.00 0.00 0.00 24 1014.4
20191021010800 70 108 0.0 1.0 0.00 0.00 0.00 24 1014.4
20191021010359 71 104 0.0 0.0 0.00 0.00 0.00 24 1014.4
20191021010159 71 115 0.0 0.0 0.00 0.00 0.00 24 1014.4
20191021005959 72 119 0.0 0.0 0.00 0.00 0.00 22 1014.3
20191021005600 73 128 0.0 1.0 0.00 0.00 0.00 21 1014.3
20191021004600 73 117 0.0 1.0 0.00 0.00 0.00 20 1014.3
20191021004400 74 134 0.0 1.0 0.00 0.00 0.00 20 1014.3
20191021004200 74 109 0.0 1.0 0.00 0.00 0.00 21 1014.3
20191021003959 74 246 0.0 0.0 0.00 0.00 0.00 20 1014.3
20191021003559 74 257 0.0 1.0 0.00 0.00 0.00 20 1014.3
20191021003359 75 212 0.0 1.0 0.00 0.00 0.00 20 1014.3
20191021003200 75 207 0.0 1.0 0.00 0.00 0.00 20 1014.4
20191021002800 75 136 0.0 2.0 0.00 0.00 0.00 19 1014.4
20191021002559 76 122 0.0 2.0 0.00 0.00 0.00 20 1014.4
20191021002359 76 270 0.0 5.0 0.00 0.00 0.00 20 1014.4
20191021002000 76 240 0.0 5.0 0.00 0.00 0.00 20 1014.3
20191021001800 76 43 0.0 5.0 0.00 0.00 0.00 20 1014.3
20191021001600 77 22 0.0 5.0 0.00 0.00 0.00 19 1014.2
20191021001400 77 266 0.0 3.0 0.00 0.00 0.00 20 1014.3
20191021001200 77 341 0.0 3.0 0.00 0.00 0.00 21 1014.3
20191021001000 77 262 0.0 1.0 0.00 0.00 0.00 19 1014.2
20191021000400 77 121 0.0 4.0 0.00 0.00 0.00 20 1014.3
20191021000159 77 70 0.0 4.0 0.00 0.00 0.00 20 1014.2
20191020235800 77 124 0.0 4.0 0.00 0.00 0.00 19 1014.2
20191020235600 77 120 1.0 4.0 0.00 0.00 0.00 20 1014.3
20191020235400 77 39 0.0 4.0 0.00 0.00 0.00 20 1014.3
20191020235000 77 295 0.0 3.0 0.00 0.00 0.00 19 1014.1
20191020234400 76 260 0.0 4.0 0.00 0.00 0.00 19 1014.0
20191020234200 77 134 1.0 4.0 0.00 0.00 0.00 19 1013.9
20191020233959 77 207 1.0 4.0 0.00 0.00 0.00 20 1013.9
20191020233759 77 80 0.0 4.0 0.00 0.00 0.00 20 1013.9
20191020233200 77 303 0.0 4.0 0.00 0.00 0.00 19 1013.7
20191020233000 77 122 0.0 4.0 0.00 0.00 0.00 20 1013.8
20191020232600 78 82 0.0 1.0 0.00 0.00 0.00 20 1013.9
20191020232400 78 131 0.0 1.0 0.00 0.00 0.00 20 1014.0
20191020232159 78 295 0.0 1.0 0.00 0.00 0.00 19 1014.0
20191020232000 77 285 0.0 1.0 0.00 0.00 0.00 20 1014.1
20191020231359 77 249 0.0 1.0 0.00 0.00 0.00 20 1014.1
20191020231200 77 249 0.0 1.0 0.00 0.00 0.00 21 1014.2
20191020231000 77 236 0.0 1.0 0.00 0.00 0.00 22 1014.2
20191020230759 77 264 0.0 2.0 0.00 0.00 0.00 21 1014.2
20191020230000 77 260 0.0 4.0 0.00 0.00 0.00 21 1014.1
20191020225759 77 295 0.0 4.0 0.00 0.00 0.00 22 1014.0
20191020225600 77 293 1.0 4.0 0.00 0.00 0.00 21 1014.0
20191020225400 77 273 1.0 4.0 0.00 0.00 0.00 23 1014.1
20191020225159 77 256 1.0 5.0 0.00 0.00 0.00 21 1014.1
20191020224800 77 198 1.0 5.0 0.00 0.00 0.00 21 1014.2
20191020224600 77 224 0.0 5.0 0.00 0.00 0.00 22 1014.1
20191020224000 77 245 1.0 4.0 0.00 0.00 0.00 21 1014.2
20191020223800 76 321 1.0 4.0 0.00 0.00 0.00 21 1014.3
20191020223400 76 304 1.0 6.0 0.00 0.00 0.00 22 1014.2
20191020222959 76 326 2.0 6.0 0.00 0.00 0.00 22 1014.2
20191020222759 76 238 2.0 6.0 0.00 0.00 0.00 21 1014.2
20191020222200 76 276 2.0 7.0 0.00 0.00 0.00 22 1014.2
20191020221959 76 270 2.0 7.0 0.00 0.00 0.00 22 1014.2
20191020221800 76 5 2.0 7.0 0.00 0.00 0.00 22 1014.2
20191020221559 77 239 3.0 8.0 0.00 0.00 0.00 21 1014.2
20191020221159 76 305 3.0 9.0 0.00 0.00 0.00 23 1014.3
20191020220959 76 297 2.0 9.0 0.00 0.00 0.00 24 1014.4
20191020220800 76 276 3.0 9.0 0.00 0.00 0.00 23 1014.5
20191020220559 76 291 3.0 9.0 0.00 0.00 0.00 23 1014.4
20191020220400 76 300 2.0 9.0 0.00 0.00 0.00 22 1014.4
20191020215559 76 225 1.0 7.0 0.00 0.00 0.00 23 1014.3
20191020215400 77 233 2.0 7.0 0.00 0.00 0.00 22 1014.2
20191020215159 77 233 1.0 7.0 0.00 0.00 0.00 21 1014.3
20191020215000 76 212 1.0 7.0 0.00 0.00 0.00 22 1014.2
20191020214600 77 263 1.0 7.0 0.00 0.00 0.00 22 1014.2
20191020214359 77 302 1.0 8.0 0.00 0.00 0.00 22 1014.3
20191020214200 77 228 1.0 8.0 0.00 0.00 0.00 22 1014.3
20191020214000 76 220 1.0 8.0 0.00 0.00 0.00 23 1014.4
20191020213559 76 280 2.0 8.0 0.00 0.00 0.00 22 1014.4
20191020212400 76 278 1.0 6.0 0.00 0.00 0.00 23 1014.5
20191020212200 76 4 2.0 6.0 0.00 0.00 0.00 22 1014.5
20191020211959 76 304 1.0 6.0 0.00 0.00 0.00 22 1014.5
20191020211359 76 169 1.0 5.0 0.00 0.00 0.00 24 1014.7
20191020211159 76 267 2.0 5.0 0.00 0.00 0.00 23 1014.6
20191020210959 76 257 2.0 5.0 0.00 0.00 0.00 23 1014.6
20191020210559 76 316 2.0 8.0 0.00 0.00 0.00 23 1014.7
20191020210359 76 264 2.0 8.0 0.00 0.00 0.00 23 1014.7
20191020210200 76 303 2.0 8.0 0.00 0.00 0.00 24 1014.8
20191020205159 75 262 2.0 7.0 0.00 0.00 0.00 26 1014.6
20191020205000 75 262 2.0 7.0 0.00 0.00 0.00 24 1014.6
20191020204759 75 283 2.0 7.0 0.00 0.00 0.00 25 1014.7
20191020204559 75 301 2.0 7.0 0.00 0.00 0.00 23 1014.6
20191020204359 76 297 2.0 7.0 0.00 0.00 0.00 24 1014.7
20191020203959 76 274 1.0 7.0 0.00 0.00 0.00 24 1014.7
20191020203800 76 252 0.0 5.0 0.00 0.00 0.00 26 1014.7
20191020203559 75 257 1.0 5.0 0.00 0.00 0.00 26 1014.7
20191020203400 75 345 1.0 5.0 0.00 0.00 0.00 26 1014.7
20191020203200 75 309 1.0 5.0 0.00 0.00 0.00 25 1014.9
20191020203000 75 172 1.0 5.0 0.00 0.00 0.00 24 1014.8
20191020202200 75 333 1.0 6.0 0.00 0.00 0.00 26 1015.0
20191020201959 74 240 1.0 6.0 0.00 0.00 0.00 26 1014.9
20191020201559 74 321 2.0 6.0 0.00 0.00 0.00 24 1014.9
20191020201200 74 243 3.0 8.0 0.00 0.00 0.00 26 1015.0
20191020200400 74 242 2.0 8.0 0.00 0.00 0.00 26 1015.0
20191020195400 73 235 1.0 5.0 0.00 0.00 0.00 26 1015.0
20191020195000 73 205 1.0 6.0 0.00 0.00 0.00 27 1015.1
20191020194800 73 270 1.0 6.0 0.00 0.00 0.00 29 1015.1
20191020194559 73 287 2.0 6.0 0.00 0.00 0.00 28 1015.1
20191020194400 73 245 2.0 6.0 0.00 0.00 0.00 28 1015.1
20191020194200 73 296 2.0 7.0 0.00 0.00 0.00 29 1015.1
20191020193800 73 256 2.0 7.0 0.00 0.00 0.00 29 1015.2
20191020193559 73 263 2.0 7.0 0.00 0.00 0.00 31 1015.3
20191020193359 73 302 2.0 7.0 0.00 0.00 0.00 28 1015.2
20191020193200 73 280 2.0 8.0 0.00 0.00 0.00 29 1015.2
20191020193000 73 256 2.0 8.0 0.00 0.00 0.00 29 1015.3
20191020192559 73 309 2.0 8.0 0.00 0.00 0.00 29 1015.3
20191020192200 72 291 2.0 5.0 0.00 0.00 0.00 30 1015.5
20191020191959 72 288 1.0 5.0 0.00 0.00 0.00 34 1015.6
20191020191600 72 23 1.0 5.0 0.00 0.00 0.00 31 1015.6
20191020191159 72 260 1.0 5.0 0.00 0.00 0.00 32 1015.7
20191020190959 72 333 1.0 5.0 0.00 0.00 0.00 32 1015.6
20191020190800 72 295 2.0 5.0 0.00 0.00 0.00 31 1015.6
20191020190600 71 274 1.0 5.0 0.00 0.00 0.00 33 1015.8
20191020190200 71 264 1.0 5.0 0.00 0.00 0.00 35 1015.7
20191020185800 71 321 1.0 3.0 0.00 0.00 0.00 32 1015.8
20191020185359 71 312 1.0 4.0 0.00 0.00 0.00 33 1015.8
20191020185159 71 283 1.0 4.0 0.00 0.00 0.00 31 1015.7
20191020184759 71 46 1.0 5.0 0.00 0.00 0.00 33 1015.8
20191020184400 71 312 2.0 5.0 0.00 0.00 0.00 34 1015.9
20191020184159 71 326 2.0 6.0 0.00 0.00 0.00 33 1015.8
20191020183959 71 232 2.0 6.0 0.00 0.00 0.00 31 1015.8
20191020182759 70 287 2.0 6.0 0.00 0.00 0.00 33 1015.7
20191020182400 70 263 2.0 6.0 0.00 0.00 0.00 31 1015.8
20191020182159 70 270 2.0 6.0 0.00 0.00 0.00 32 1015.8
20191020182000 70 304 2.0 4.0 0.00 0.00 0.00 32 1015.8
20191020181759 69 281 2.0 6.0 0.00 0.00 0.00 31 1015.8
20191020181600 69 280 1.0 6.0 0.00 0.00 0.00 32 1015.7
20191020181400 69 286 1.0 6.0 0.00 0.00 0.00 33 1015.8
20191020181200 69 277 1.0 6.0 0.00 0.00 0.00 33 1015.7
20191020180959 69 264 1.0 6.0 0.00 0.00 0.00 32 1015.6
20191020180559 69 286 1.0 3.0 0.00 0.00 0.00 33 1015.6
20191020175200 68 344 0.0 3.0 0.00 0.00 0.00 36 1015.5
20191020174759 68 322 0.0 4.0 0.00 0.00 0.00 35 1015.5
20191020174559 68 325 1.0 4.0 0.00 0.00 0.00 36 1015.5
20191020174200 67 294 1.0 4.0 0.00 0.00 0.00 35 1015.4
20191020173959 67 300 1.0 4.0 0.00 0.00 0.00 36 1015.4
20191020173359 67 251 1.0 4.0 0.00 0.00 0.00 37 1015.5
20191020173159 67 359 0.0 3.0 0.00 0.00 0.00 38 1015.4